EW3857 Weather Reports


time (UTC)temp
F
wind
direction
speed
knots
gust
knots
rain 1hr
in
rain 24hr
in
rain mn
in
humidity
%
barometer
mb
20260906141408 80 150 1.7 1.7 0.00 0.00 0.00 81 1015.4
20260906140902 81 154 2.6 2.6 0.00 0.00 0.00 81 1015.5
20260906140357 80 161 0.9 1.7 0.00 0.00 0.00 80 1015.5
20260906135854 81 163 0.0 1.7 0.00 0.00 0.00 82 1015.6
20260906135348 81 164 0.9 0.9 0.00 0.00 0.00 80 1015.6
20260906134844 81 159 1.7 1.7 0.00 0.00 0.00 79 1015.7
20260906134339 80 176 0.0 0.0 0.00 0.00 0.00 81 1015.6
20260906133835 80 181 0.9 0.9 0.00 0.00 0.00 81 1015.7
20260906133330 80 164 0.9 1.7 0.00 0.00 0.00 81 1015.8
20260906132826 79 182 0.0 0.9 0.00 0.00 0.00 82 1015.8
20260906132320 79 166 1.7 1.7 0.00 0.00 0.00 81 1015.8
20260906131816 79 183 0.0 0.9 0.00 0.00 0.00 83 1015.6
20260906131306 78 167 0.0 0.0 0.00 0.00 0.00 83 1016.0
20260906130802 78 153 2.6 2.6 0.00 0.00 0.00 84 1015.7
20260906130256 78 157 0.9 0.9 0.00 0.00 0.00 85 1015.9
20260906125755 78 150 3.5 4.3 0.00 0.00 0.00 85 1015.8
20260906125253 78 180 1.7 1.7 0.00 0.00 0.00 87 1015.9
20260906124753 77 158 2.6 2.6 0.00 0.00 0.00 87 1016.0
20260906124249 77 180 0.0 0.0 0.00 0.00 0.00 88 1015.9
20260906123747 77 173 1.7 2.6 0.00 0.00 0.00 89 1015.9
20260906123243 77 180 0.9 0.9 0.00 0.00 0.00 88 1015.8
20260906122742 77 181 1.7 1.7 0.00 0.00 0.00 89 1015.9
20260906122237 77 155 2.6 2.6 0.00 0.00 0.00 89 1016.1
20260906121734 77 182 0.0 0.0 0.00 0.00 0.00 89 1015.9
20260906121230 77 181 0.9 0.9 0.00 0.00 0.00 89 1016.1
20260906120726 77 153 2.6 2.6 0.00 0.00 0.00 90 1015.8
20260906120222 76 172 0.9 0.9 0.00 0.00 0.00 90 1016.0
20260906115718 76 183 0.9 0.9 0.00 0.00 0.00 90 1015.9
20260906115213 76 183 0.0 0.9 0.00 0.00 0.00 89 1015.7
20260906114711 77 182 0.0 0.0 0.00 0.00 0.00 89 1015.6
20260906114207 76 180 2.6 2.6 0.00 0.00 0.00 90 1015.8
20260906113702 76 183 0.9 1.7 0.00 0.00 0.00 90 1015.8
20260906113201 76 181 0.0 0.0 0.00 0.00 0.00 90 1015.9
20260906112701 76 181 0.0 0.0 0.00 0.00 0.00 90 1015.6
20260906112158 76 181 0.0 0.0 0.00 0.00 0.00 91 1015.6
20260906111657 76 174 0.9 1.7 0.00 0.00 0.00 91 1015.6
20260906111152 76 183 0.0 0.0 0.00 0.00 0.00 90 1015.4
20260906110647 76 183 0.0 0.0 0.00 0.00 0.00 90 1015.1
20260906110142 76 183 0.9 0.9 0.00 0.00 0.00 91 1015.1
20260906105636 76 183 0.0 0.0 0.00 0.00 0.00 91 1015.1
20260906105132 75 182 0.0 0.0 0.00 0.00 0.00 91 1015.0
20260906104631 75 182 0.0 0.0 0.00 0.00 0.00 91 1015.1
20260906104125 75 182 0.0 0.0 0.00 0.00 0.00 91 1015.3
20260906103623 75 182 0.0 0.0 0.00 0.00 0.00 91 1015.3
20260906103119 75 182 0.0 0.0 0.00 0.00 0.00 91 1015.4
20260906102614 75 183 0.9 0.9 0.00 0.00 0.00 91 1015.5
20260906102109 75 181 0.0 0.0 0.00 0.00 0.00 90 1015.0
20260906101608 75 183 0.9 0.9 0.00 0.00 0.00 90 1015.1
20260906101103 75 184 0.9 1.7 0.00 0.00 0.00 90 1015.3
20260906100558 75 183 0.0 0.0 0.00 0.00 0.00 91 1015.3
20260906100053 75 183 0.0 0.0 0.00 0.00 0.00 91 1015.0
20260906095553 75 184 0.0 0.0 0.00 0.00 0.00 89 1014.7
20260906095048 75 185 0.0 0.0 0.00 0.00 0.00 89 1015.0
20260906094547 76 188 0.0 0.0 0.00 0.00 0.00 89 1015.0
20260906094044 76 280 0.0 0.0 0.00 0.00 0.00 89 1014.7
20260906093539 76 274 0.0 0.9 0.00 0.00 0.00 88 1014.7
20260906093034 76 273 0.0 0.0 0.00 0.00 0.00 88 1014.5
20260906092529 76 274 0.9 0.9 0.00 0.00 0.00 88 1014.5
20260906092024 76 260 1.7 1.7 0.00 0.00 0.00 88 1014.2
20260906091520 76 256 0.0 0.0 0.00 0.00 0.00 88 1014.4
20260906091016 77 242 0.9 0.9 0.00 0.00 0.00 87 1014.3
20260906090516 78 287 0.0 0.0 0.00 0.00 0.00 84 1014.4
20260906090011 78 287 0.0 0.0 0.00 0.00 0.00 83 1014.7
20260906085509 78 305 0.0 0.9 0.00 0.00 0.00 82 1014.9
20260906085004 79 11 1.7 1.7 0.00 0.00 0.00 82 1014.9
20260906084459 79 330 2.6 2.6 0.00 0.00 0.00 82 1015.4
20260906083957 79 3 5.2 6.1 0.00 0.00 0.00 84 1015.4
20260906083453 79 204 4.3 5.2 0.00 0.00 0.00 82 1015.4
20260906082952 79 158 2.6 4.3 0.00 0.00 0.00 84 1015.5
20260906082448 80 161 4.3 5.2 0.00 0.00 0.00 84 1015.6
20260906081943 79 169 3.5 4.3 0.00 0.00 0.00 85 1015.3
20260906081438 79 202 4.3 4.3 0.00 0.00 0.00 86 1015.3
20260906080934 80 194 4.3 4.3 0.00 0.00 0.00 86 1015.3
20260906080431 80 156 5.2 6.1 0.00 0.00 0.00 87 1015.3
20260906075931 79 188 3.5 4.3 0.00 0.00 0.00 90 1015.3
20260906075426 79 184 2.6 4.3 0.00 0.00 0.00 91 1015.1
20260906074920 80 187 2.6 4.3 0.00 0.00 0.00 90 1015.0
20260906074415 80 153 5.2 6.1 0.00 0.00 0.00 89 1014.9
20260906073914 80 161 5.2 6.1 0.00 0.00 0.00 89 1015.0
20260906073409 80 153 3.5 4.3 0.00 0.00 0.00 90 1015.0
20260906072905 80 179 2.6 2.6 0.00 0.00 0.00 90 1015.1
20260906072400 80 163 4.3 4.3 0.00 0.00 0.00 90 1015.1
20260906071856 79 163 4.3 5.2 0.00 0.00 0.00 90 1015.1
20260906071351 79 171 3.5 4.3 0.00 0.00 0.00 92 1015.1
20260906070847 79 182 4.3 4.3 0.00 0.00 0.00 93 1015.0
20260906070343 78 180 0.0 0.0 0.00 0.00 0.00 93 1015.3
20260906065838 78 180 0.0 0.0 0.00 0.00 0.00 93 1015.3
20260906065333 78 180 0.0 0.0 0.00 0.00 0.00 93 1015.2
20260906064828 77 180 0.0 0.9 0.00 0.00 0.00 93 1015.2
20260906064324 77 181 0.0 0.0 0.00 0.00 0.00 93 1014.9
20260906063819 77 181 0.9 0.9 0.00 0.00 0.00 94 1015.0
20260906063315 77 180 0.0 0.9 0.00 0.00 0.00 94 1015.1
20260906062810 77 180 0.0 0.0 0.00 0.00 0.00 95 1015.2
20260906062308 77 180 0.0 0.0 0.00 0.00 0.00 95 1015.1
20260906061804 77 179 0.9 0.9 0.00 0.00 0.00 95 1015.2
20260906061301 77 181 0.9 0.9 0.00 0.00 0.00 95 1015.0
20260906060755 77 180 0.0 0.0 0.00 0.00 0.00 95 1015.0
20260906060253 78 181 0.9 0.9 0.00 0.00 0.00 94 1015.1
20260906055749 78 180 0.0 0.0 0.00 0.00 0.00 94 1015.1
20260906055244 78 180 0.0 0.0 0.00 0.00 0.00 93 1015.0
20260906054739 78 180 0.0 0.0 0.00 0.00 0.00 93 1015.1
20260906054234 78 180 0.0 0.0 0.00 0.00 0.00 93 1014.9
20260906053731 78 180 0.0 0.0 0.00 0.00 0.00 93 1015.2
20260906053226 78 180 0.0 0.0 0.00 0.00 0.00 94 1015.1
20260906052721 78 181 0.9 0.9 0.00 0.00 0.00 93 1015.2
20260906052217 78 182 1.7 1.7 0.00 0.00 0.00 93 1015.0
20260906051714 78 180 0.0 0.0 0.00 0.00 0.00 93 1015.1
20260906051213 78 181 0.9 0.9 0.00 0.00 0.00 93 1015.0
20260906050709 78 181 0.9 0.9 0.00 0.00 0.00 93 1015.0
20260906050204 78 180 0.0 0.0 0.00 0.00 0.00 93 1015.2
20260906045702 78 180 0.9 0.9 0.00 0.00 0.00 93 1015.3
20260906045157 78 180 0.0 0.0 0.00 0.00 0.00 94 1015.1
20260906044653 78 181 0.9 0.9 0.00 0.00 0.00 94 1015.2
20260906044148 78 180 0.0 0.0 0.00 0.00 0.00 93 1015.2
20260906043645 78 180 0.0 0.0 0.00 0.00 0.00 93 1015.4
20260906043140 79 180 0.9 0.9 0.00 0.00 0.00 92 1015.5
20260906042639 79 180 0.0 0.0 0.00 0.00 0.00 92 1015.3
20260906042134 78 180 0.0 0.9 0.00 0.00 0.00 92 1015.3
20260906041629 78 180 0.0 0.0 0.00 0.00 0.00 92 1015.3
20260906041124 78 181 0.9 1.7 0.00 0.00 0.00 93 1015.4
20260906040620 78 179 0.9 0.9 0.00 0.00 0.00 93 1015.4
20260906040115 78 180 0.0 0.0 0.00 0.00 0.00 92 1015.4
20260906035610 78 181 0.9 0.9 0.00 0.00 0.00 92 1015.4
20260906035105 79 180 0.0 0.0 0.00 0.00 0.00 92 1015.3
20260906034600 79 180 0.0 0.0 0.00 0.00 0.00 92 1015.3
20260906034100 79 181 0.0 0.9 0.00 0.00 0.00 92 1015.3
20260906033550 79 180 0.9 0.9 0.00 0.00 0.00 92 1015.3
20260906033045 79 181 0.9 1.7 0.00 0.00 0.00 92 1015.1
20260906032541 79 181 0.9 1.7 0.00 0.00 0.00 92 1015.1
20260906032036 79 181 0.9 0.9 0.00 0.00 0.00 92 1015.1
20260906031532 79 182 0.9 0.9 0.00 0.00 0.00 92 1015.2
20260906031028 79 180 0.9 1.7 0.00 0.00 0.00 92 1015.0
20260906030526 79 180 0.9 0.9 0.00 0.00 0.00 91 1015.0
20260906030026 79 180 0.0 0.0 0.00 0.00 0.00 91 1015.2
20260906025526 80 180 0.0 0.9 0.00 0.00 0.00 90 1015.1
20260906025024 80 181 0.9 0.9 0.00 0.00 0.00 90 1015.2
20260906024519 80 179 0.0 0.0 0.00 0.00 0.00 90 1014.9
20260906024014 80 181 1.7 1.7 0.00 0.00 0.00 89 1014.9
20260906023510 80 252 0.9 0.9 0.00 0.00 0.00 88 1014.9
20260906023005 80 251 0.9 0.9 0.00 0.00 0.00 88 1014.8
20260906022500 81 251 0.9 0.9 0.00 0.00 0.00 87 1014.9
20260906021955 81 270 0.9 1.7 0.00 0.00 0.00 86 1014.8
20260906021450 82 268 0.9 0.9 0.00 0.00 0.00 85 1014.9
20260906020944 83 274 0.0 0.9 0.00 0.00 0.00 84 1014.9
20260906020439 84 281 0.9 0.9 0.00 0.00 0.00 84 1014.7
20260906015939 84 20 1.7 2.6 0.00 0.00 0.00 85 1014.9
20260906015438 83 28 3.5 4.3 0.00 0.00 0.00 85 1015.1
20260906014932 83 1 0.9 0.9 0.00 0.00 0.00 85 1014.8
20260906014432 84 16 0.9 0.9 0.00 0.00 0.00 84 1014.7
20260906013923 84 50 2.6 2.6 0.00 0.00 0.00 84 1014.8
20260906013418 83 349 0.9 0.9 0.00 0.00 0.00 83 1014.5
20260906012914 82 336 0.9 1.7 0.00 0.00 0.00 83 1014.6
20260906012408 82 272 0.0 0.0 0.00 0.00 0.00 83 1014.7
20260906011907 82 273 0.0 0.0 0.00 0.00 0.00 83 1014.4
20260906011403 83 314 0.9 0.9 0.00 0.00 0.00 82 1014.1
20260906010858 83 325 1.7 1.7 0.00 0.00 0.00 83 1013.7
20260906010354 84 289 0.9 0.9 0.00 0.00 0.00 82 1013.6
20260906005850 84 331 1.7 1.7 0.00 0.00 0.00 80 1013.4
20260906005349 85 12 1.7 1.7 0.00 0.00 0.00 81 1013.4
20260906004847 85 67 0.9 1.7 0.00 0.00 0.00 82 1013.4
20260906004347 84 40 0.9 1.7 0.00 0.00 0.00 78 1013.4
20260906003843 84 349 2.6 2.6 0.00 0.00 0.00 77 1013.4
20260906003338 85 12 2.6 2.6 0.00 0.00 0.00 78 1013.6
20260906002833 85 353 4.3 4.3 0.00 0.00 0.00 76 1013.6
20260906002333 86 358 3.5 4.3 0.00 0.00 0.00 75 1013.7
20260906001829 86 345 3.5 4.3 0.00 0.00 0.00 73 1013.8
20260906001324 86 289 0.0 0.9 0.00 0.00 0.00 72 1013.7
20260906000819 86 20 1.7 2.6 0.00 0.00 0.00 70 1013.8
20260906000314 86 0 2.6 4.3 0.00 0.00 0.00 80 1013.5
20260905235809 86 68 3.5 5.2 0.00 0.00 0.00 80 1013.6
20260905235308 85 317 0.9 1.7 0.00 0.00 0.00 75 1013.3
20260905234804 86 262 0.0 0.0 0.00 0.00 0.00 79 1013.3
20260905234259 86 267 0.0 0.0 0.00 0.00 0.00 77 1013.7
20260905233754 87 272 0.0 0.9 0.00 0.00 0.00 74 1013.5
20260905233254 88 272 0.9 1.7 0.00 0.00 0.00 71 1013.6
20260905232753 88 273 0.9 0.9 0.00 0.00 0.00 70 1013.6
20260905232249 89 288 0.0 0.9 0.00 0.00 0.00 68 1013.6
20260905231744 90 350 4.3 5.2 0.00 0.00 0.00 57 1013.4
20260905231239 90 5 3.5 4.3 0.00 0.00 0.00 58 1013.5
20260905230736 90 13 3.5 4.3 0.00 0.00 0.00 58 1013.5
20260905230233 90 2 2.6 2.6 0.00 0.00 0.00 67 1013.2
20260905225728 89 0 2.6 2.6 0.00 0.00 0.00 68 1013.4
20260905225224 90 325 0.9 0.9 0.00 0.00 0.00 68 1013.1
20260905224722 91 22 2.6 4.3 0.00 0.00 0.00 63 1013.1
20260905224218 91 18 3.5 4.3 0.00 0.00 0.00 65 1013.3
20260905223714 91 72 2.6 4.3 0.00 0.00 0.00 66 1013.2
20260905223211 91 338 2.6 2.6 0.00 0.00 0.00 62 1013.1
20260905222706 91 342 4.3 5.2 0.00 0.00 0.00 63 1013.3
20260905222205 92 16 7.8 8.7 0.00 0.00 0.00 62 1013.3
20260905221701 95 39 7.8 11.3 0.00 0.00 0.00 57 1013.4
20260905221157 95 285 1.7 1.7 0.00 0.00 0.00 56 1013.3
20260905220653 95 285 1.7 1.7 0.00 0.00 0.00 56 1013.4
20260905220149 95 273 0.0 0.0 0.00 0.00 0.00 59 1013.6
20260905215643 95 264 0.0 0.0 0.00 0.00 0.00 60 1013.3
20260905215138 95 266 0.0 0.0 0.00 0.00 0.00 60 1013.4
20260905214634 95 269 0.0 0.0 0.00 0.00 0.00 57 1013.5
20260905214129 96 270 0.9 1.7 0.00 0.00 0.00 57 1013.3
20260905213625 96 267 0.0 0.0 0.00 0.00 0.00 55 1013.4
20260905213120 96 270 0.0 0.0 0.00 0.00 0.00 58 1013.4
20260905212615 96 256 1.7 1.7 0.00 0.00 0.00 57 1013.5
20260905212114 95 272 0.0 0.0 0.00 0.00 0.00 56 1013.7
20260905211610 95 287 0.9 0.9 0.00 0.00 0.00 56 1013.5
20260905211105 97 271 0.0 0.0 0.00 0.00 0.00 55 1013.5
20260905210602 97 266 0.0 0.0 0.00 0.00 0.00 57 1013.3
20260905210056 95 264 0.0 0.0 0.00 0.00 0.00 60 1013.2
20260905205555 96 252 2.6 2.6 0.00 0.00 0.00 59 1013.3
20260905205055 96 256 1.7 1.7 0.00 0.00 0.00 57 1013.5
20260905204549 96 257 1.7 1.7 0.00 0.00 0.00 55 1013.4
20260905204045 96 257 2.6 2.6 0.00 0.00 0.00 55 1013.4
20260905203544 95 253 3.5 4.3 0.00 0.00 0.00 57 1013.5
20260905203040 95 256 0.9 0.9 0.00 0.00 0.00 56 1013.7
20260905202535 96 249 3.5 4.3 0.00 0.00 0.00 58 1013.6
20260905202031 95 258 0.9 1.7 0.00 0.00 0.00 59 1013.7
20260905201526 95 252 3.5 4.3 0.00 0.00 0.00 59 1013.8
20260905201025 95 255 2.6 2.6 0.00 0.00 0.00 59 1014.1
20260905200521 95 252 2.6 2.6 0.00 0.00 0.00 60 1014.2
20260905200020 95 255 2.6 2.6 0.00 0.00 0.00 59 1014.2
20260905195515 96 255 2.6 2.6 0.00 0.00 0.00 58 1014.3
20260905195010 96 255 1.7 1.7 0.00 0.00 0.00 59 1014.6
20260905194509 96 277 0.9 0.9 0.00 0.00 0.00 59 1014.6
20260905194003 95 257 0.9 0.9 0.00 0.00 0.00 59 1014.3
20260905193458 95 264 0.9 0.9 0.00 0.00 0.00 60 1014.4
20260905192954 95 257 0.9 0.9 0.00 0.00 0.00 60 1014.6
20260905192449 95 255 1.7 1.7 0.00 0.00 0.00 58 1014.5
20260905191945 94 251 2.6 2.6 0.00 0.00 0.00 62 1014.6
20260905191443 94 261 0.9 0.9 0.00 0.00 0.00 59 1014.6
20260905190937 94 256 1.7 1.7 0.00 0.00 0.00 62 1014.7
20260905190435 94 249 2.6 2.6 0.00 0.00 0.00 62 1015.0
20260905185934 94 256 1.7 1.7 0.00 0.00 0.00 61 1015.0
20260905185429 94 251 2.6 2.6 0.00 0.00 0.00 63 1015.0
20260905184928 93 255 2.6 2.6 0.00 0.00 0.00 61 1015.2
20260905184423 93 251 3.5 4.3 0.00 0.00 0.00 62 1015.2
20260905183922 94 253 3.5 4.3 0.00 0.00 0.00 65 1015.1
20260905183416 93 253 2.6 4.3 0.00 0.00 0.00 63 1015.4
20260905182912 93 255 2.6 2.6 0.00 0.00 0.00 65 1015.5
20260905182410 93 249 4.3 4.3 0.00 0.00 0.00 65 1015.4
20260905181907 94 250 3.5 4.3 0.00 0.00 0.00 64 1015.3
20260905181407 93 254 2.6 2.6 0.00 0.00 0.00 66 1015.6
20260905180905 93 252 3.5 4.3 0.00 0.00 0.00 66 1015.8
20260905180401 93 251 3.5 4.3 0.00 0.00 0.00 66 1015.8
20260905175855 93 256 2.6 2.6 0.00 0.00 0.00 63 1015.8
20260905175354 93 256 1.7 1.7 0.00 0.00 0.00 66 1016.0
20260905174850 93 252 2.6 2.6 0.00 0.00 0.00 68 1016.0
20260905174346 93 260 0.9 0.9 0.00 0.00 0.00 69 1015.9
20260905173842 93 262 0.9 1.7 0.00 0.00 0.00 67 1016.1
20260905173337 93 269 0.9 0.9 0.00 0.00 0.00 66 1016.1
20260905172832 93 264 0.9 0.9 0.00 0.00 0.00 66 1016.1
20260905172330 92 270 0.0 0.0 0.00 0.00 0.00 72 1016.2
20260905171827 92 262 0.9 0.9 0.00 0.00 0.00 70 1016.3
20260905171323 92 262 1.7 2.6 0.00 0.00 0.00 72 1016.2
20260905170819 91 258 1.7 1.7 0.00 0.00 0.00 72 1016.4
20260905170315 91 262 1.7 1.7 0.00 0.00 0.00 73 1016.2
20260905165814 91 255 2.6 2.6 0.00 0.00 0.00 76 1016.3
20260905165309 91 263 1.7 1.7 0.00 0.00 0.00 76 1016.4
20260905164804 91 261 0.9 1.7 0.00 0.00 0.00 77 1016.4
20260905164304 90 257 1.7 1.7 0.00 0.00 0.00 79 1016.4
20260905163754 90 255 0.9 1.7 0.00 0.00 0.00 78 1016.8
20260905163250 89 265 0.9 0.9 0.00 0.00 0.00 79 1016.7
20260905162746 89 264 0.9 0.9 0.00 0.00 0.00 81 1016.7
20260905162245 89 268 0.9 0.9 0.00 0.00 0.00 80 1016.6
20260905161740 89 263 0.9 1.7 0.00 0.00 0.00 82 1016.8
20260905161238 89 344 0.0 0.0 0.00 0.00 0.00 81 1016.8
20260905160732 89 268 0.9 0.9 0.00 0.00 0.00 81 1016.8
20260905160231 89 265 0.9 0.9 0.00 0.00 0.00 81 1017.1
20260905155726 89 260 1.7 1.7 0.00 0.00 0.00 81 1017.0
20260905155225 89 256 1.7 1.7 0.00 0.00 0.00 81 1017.1
20260905154719 88 265 0.9 0.9 0.00 0.00 0.00 82 1017.1
20260905154215 87 268 0.9 0.9 0.00 0.00 0.00 84 1017.1
20260905153711 87 262 1.7 1.7 0.00 0.00 0.00 83 1017.2
20260905153206 86 264 0.9 0.9 0.00 0.00 0.00 84 1017.1
20260905152701 85 257 1.7 1.7 0.00 0.00 0.00 87 1017.3
20260905152155 85 266 0.9 0.9 0.00 0.00 0.00 88 1017.3
20260905151650 85 266 0.0 0.9 0.00 0.00 0.00 89 1017.2
20260905151146 84 252 0.9 0.9 0.00 0.00 0.00 89 1017.2
20260905150641 84 269 0.9 0.9 0.00 0.00 0.00 90 1017.1
20260905150139 84 271 0.0 0.9 0.00 0.00 0.00 90 1017.2
20260905145637 84 277 0.0 0.9 0.00 0.00 0.00 90 1017.1
20260905145137 84 270 0.0 0.0 0.00 0.00 0.00 90 1017.2
20260905144626 84 259 0.9 0.9 0.00 0.00 0.00 91 1017.3
20260905144125 83 267 0.0 0.9 0.00 0.00 0.00 91 1017.3
20260905143620 83 261 1.7 1.7 0.00 0.00 0.00 92 1017.0
20260905143115 83 259 0.9 1.7 0.00 0.00 0.00 90 1017.2
20260905142614 83 264 0.9 0.9 0.00 0.00 0.00 90 1017.2
20260905142113 83 266 0.0 0.0 0.00 0.00 0.00 90 1017.5
20260905141613 83 268 0.9 0.9 0.00 0.00 0.00 89 1017.2